DLH3XV EDDM-EFHK

Flight info

Callsign DLH3XV
Flight time N/A
Altitude 38000
Route AKINI1E AKINI Y104 MAMOR L132 AGNAV DCT SUPIL/N0439F390 DCT KILNU DCT UNRIG DCT BODLA DCT PENOR DCT ALAMI DCT OKEVU DCT EVADI Y370 DIVAM
Aircraft A20N/M-SDE2E3FGIJ1LORWXYZ/HB1

Departure

Time N/A
Airport Munich Airport (EDDM)

Arrival

Time 2026-04-21 10:57
Airport Helsinki Vantaa Airport (EFHK)
Time Latitude Longitude Altitude Speed Heading
2026-04-21 10:34 59.40183 22.06238 34183 ft 411 kts 56°
2026-04-21 10:34 59.41631 22.11049 33439 ft 408 kts 56°
2026-04-21 10:35 59.43085 22.15886 32702 ft 405 kts 56°
2026-04-21 10:35 59.44511 22.20641 31975 ft 402 kts 56°
2026-04-21 10:35 59.45930 22.25379 31163 ft 403 kts 56°
2026-04-21 10:35 59.47350 22.30130 30373 ft 402 kts 56°
2026-04-21 10:36 59.48754 22.34840 29805 ft 395 kts 56°
2026-04-21 10:36 59.50107 22.39396 29262 ft 388 kts 56°
2026-04-21 10:36 59.51457 22.43945 28693 ft 381 kts 56°
2026-04-21 10:36 59.52783 22.48424 28148 ft 375 kts 56°
2026-04-21 10:37 59.54085 22.52835 27611 ft 370 kts 56°
2026-04-21 10:37 59.55368 22.57187 27070 ft 365 kts 56°
2026-04-21 10:37 59.56629 22.61472 26543 ft 360 kts 56°
2026-04-21 10:37 59.57879 22.65723 26014 ft 355 kts 56°
2026-04-21 10:38 59.59109 22.69917 25508 ft 352 kts 56°
2026-04-21 10:38 59.60327 22.74075 24971 ft 348 kts 56°
2026-04-21 10:38 59.61543 22.78228 24441 ft 355 kts 56°
2026-04-21 10:38 59.62823 22.82592 23923 ft 375 kts 57°
2026-04-21 10:39 59.64129 22.87071 23396 ft 378 kts 57°
2026-04-21 10:39 59.65426 22.91546 23129 ft 369 kts 57°
2026-04-21 10:39 59.66678 22.95883 22466 ft 359 kts 57°
2026-04-21 10:39 59.67911 23.00154 21539 ft 354 kts 57°
2026-04-21 10:40 59.69109 23.04305 21041 ft 342 kts 57°
2026-04-21 10:40 59.70280 23.08364 20540 ft 337 kts 57°
2026-04-21 10:40 59.71431 23.12355 20021 ft 328 kts 57°
2026-04-21 10:40 59.72555 23.16255 19511 ft 325 kts 57°
2026-04-21 10:41 59.73671 23.20132 19008 ft 323 kts 57°
2026-04-21 10:41 59.74781 23.23999 18494 ft 321 kts 57°
2026-04-21 10:41 59.75878 23.27828 17979 ft 318 kts 57°
2026-04-21 10:41 59.76963 23.31622 17454 ft 316 kts 57°
2026-04-21 10:42 59.78098 23.35577 16952 ft 345 kts 57°
2026-04-21 10:42 59.79310 23.39810 16396 ft 357 kts 57°
2026-04-21 10:42 59.80124 23.42672 16021 ft 360 kts 57°
2026-04-21 10:42 59.81348 23.46991 15460 ft 358 kts 57°
2026-04-21 10:43 59.82945 23.52648 14714 ft 351 kts 57°
2026-04-21 10:43 59.84129 23.56844 14162 ft 345 kts 57°
2026-04-21 10:43 59.85293 23.60973 13603 ft 339 kts 57°
2026-04-21 10:43 59.86433 23.65026 13076 ft 333 kts 57°
2026-04-21 10:44 59.87192 23.67728 12728 ft 329 kts 57°
2026-04-21 10:44 59.88281 23.71618 12540 ft 314 kts 57°
2026-04-21 10:44 59.89317 23.75329 12424 ft 299 kts 57°
2026-04-21 10:44 59.90306 23.78875 12298 ft 285 kts 57°
2026-04-21 10:45 59.91214 23.82289 12104 ft 276 kts 62°
2026-04-21 10:45 59.91858 23.85814 11753 ft 275 kts 68°
2026-04-21 10:45 59.92427 23.89430 11385 ft 271 kts 68°
2026-04-21 10:45 59.92992 23.92994 11000 ft 268 kts 68°
2026-04-21 10:46 59.93551 23.96520 10639 ft 266 kts 68°
2026-04-21 10:46 59.94274 23.99857 10303 ft 263 kts 52°
2026-04-21 10:46 59.95453 24.02757 9941 ft 271 kts 46°
2026-04-21 10:46 59.96657 24.05617 9556 ft 268 kts 47°
2026-04-21 10:47 59.97840 24.08473 9196 ft 264 kts 47°
2026-04-21 10:47 59.99010 24.11297 8826 ft 266 kts 47°
2026-04-21 10:47 60.00188 24.14139 8454 ft 264 kts 48°
2026-04-21 10:47 60.01352 24.16965 8107 ft 262 kts 49°
2026-04-21 10:48 60.02468 24.19813 7748 ft 259 kts 50°
2026-04-21 10:48 60.03555 24.22643 7381 ft 255 kts 50°
2026-04-21 10:48 60.04632 24.25445 7051 ft 253 kts 50°
2026-04-21 10:48 60.05690 24.28191 6682 ft 244 kts 50°
2026-04-21 10:49 60.06707 24.30835 6308 ft 235 kts 50°
2026-04-21 10:49 60.07683 24.33376 6024 ft 225 kts 50°
2026-04-21 10:49 60.08615 24.35808 5744 ft 222 kts 50°
2026-04-21 10:49 60.09544 24.38223 5456 ft 216 kts 50°
2026-04-21 10:50 60.10462 24.40566 5169 ft 212 kts 49°
2026-04-21 10:50 60.11385 24.42880 4891 ft 212 kts 50°
2026-04-21 10:50 60.12138 24.45463 4775 ft 214 kts 60°
2026-04-21 10:50 60.12775 24.48056 4678 ft 205 kts 60°
2026-04-21 10:51 60.13480 24.50496 4591 ft 204 kts 53°
2026-04-21 10:51 60.14334 24.52730 4483 ft 200 kts 47°
2026-04-21 10:51 60.15249 24.54841 4396 ft 202 kts 46°
2026-04-21 10:51 60.16188 24.56937 4305 ft 200 kts 45°
2026-04-21 10:52 60.17121 24.59008 4199 ft 201 kts 45°
2026-04-21 10:52 60.18064 24.61093 3985 ft 201 kts 45°
2026-04-21 10:52 60.18949 24.63066 3768 ft 201 kts 45°
2026-04-21 10:52 60.19888 24.65148 3510 ft 200 kts 45°
2026-04-21 10:53 60.20833 24.67242 3249 ft 204 kts 45°
2026-04-21 10:53 60.21781 24.69345 2961 ft 202 kts 45°
2026-04-21 10:53 60.22723 24.71429 2752 ft 201 kts 45°
2026-04-21 10:53 60.23683 24.73500 2498 ft 194 kts 42°
2026-04-21 10:54 60.24603 24.75310 2399 ft 179 kts 44°
2026-04-21 10:54 60.25348 24.77157 2218 ft 157 kts 48°
2026-04-21 10:54 60.26011 24.78718 1861 ft 139 kts 43°
2026-04-21 10:54 60.26640 24.80086 1636 ft 128 kts 44°
2026-04-21 10:55 60.27210 24.81404 1402 ft 121 kts 44°
2026-04-21 10:55 60.27768 24.82646 1131 ft 118 kts 44°
2026-04-21 10:55 60.28369 24.83934 1000 ft 134 kts 43°
2026-04-21 10:55 60.29000 24.85305 823 ft 132 kts 44°
2026-04-21 10:56 60.29617 24.86691 644 ft 135 kts 43°
2026-04-21 10:56 60.30260 24.88103 474 ft 138 kts 43°
2026-04-21 10:56 60.30911 24.89544 321 ft 140 kts 42°
2026-04-21 10:56 60.31544 24.90943 179 ft 127 kts 43°
2026-04-21 10:57 60.32089 24.92126 161 ft 102 kts 48°
2026-04-21 10:57 60.32464 24.92953 161 ft 61 kts 47°
2026-04-21 10:57 60.32702 24.93465 171 ft 45 kts 46°
2026-04-21 10:57 60.32882 24.93878 176 ft 35 kts 49°
2026-04-21 10:58 60.33039 24.94237 176 ft 33 kts 62°
2026-04-21 10:58 60.33046 24.94605 162 ft 7 kts 101°
2026-04-21 10:58 60.33004 24.94715 161 ft 13 kts 137°
2026-04-21 10:58 60.32924 24.94866 161 ft 18 kts 137°
2026-04-21 10:59 60.32798 24.94973 161 ft 22 kts 162°
2026-04-21 10:59 60.32639 24.95078 161 ft 26 kts 161°
2026-04-21 10:59 60.32455 24.95202 161 ft 29 kts 162°
2026-04-21 10:59 60.32309 24.95331 161 ft 21 kts 136°
2026-04-21 11:00 60.32192 24.95544 161 ft 24 kts 138°
2026-04-21 11:00 60.32076 24.95753 162 ft 19 kts 138°
2026-04-21 11:00 60.31970 24.95954 161 ft 23 kts 136°
2026-04-21 11:00 60.31884 24.96109 161 ft 9 kts 138°
2026-04-21 11:01 60.31855 24.96246 161 ft 12 kts 91°
2026-04-21 11:01 60.31840 24.96319 161 ft 6 kts 134°
2026-04-21 11:01 60.31820 24.96357 161 ft 2 kts 138°
2026-04-21 11:02 60.31803 24.96389 161 ft 1 kts 137°